www.pogodaiklimat.ru

Погода и климат >> Архив погоды >> Великобритания >> Аэропорт Хитроу


АРХИВ ПОГОДЫ в Аэропорту Хитроу

Время (UTC), дата Ветер
(напр.,м/с)
 
Видим.   Явления Облачность Т
(С)
Тd
(С)
f
(%)
Тe
(С)
Тes
(С)
Комфортность P
(гПа)
Po
(гПа)
Тmin
(С)
Tmax
(С)
R
(мм)
R24
(мм)
S
(см)
07 19.06 С 1 15 км н/о +15.3 +13.2 87 +16 +16 по сезону 1007.5 1004.5
08 19.06 СЗ 1 14 км в посл. час дождь н/о +15.8 +13.2 85 +16 +16 по сезону 1007.6 1004.6
09 19.06 СЗ 2 21 км н/о +16.7 +13.0 79 +17 +17 по сезону 1007.5 1004.6
10 19.06 СЗ 3 23 км н/о +17.7 +13.6 77 +18 +18 по сезону 1007.7 1004.7
11 19.06 СЗ 2 24 км н/о +18.5 +13.3 72 +20 +20 по сезону 1007.6 1004.6
12 19.06 СЗ 2 28 км н/о +19.0 +13.9 72 +21 +21 комфорт 1007.8 1004.9 0.0
13 19.06 СЗ 1 10 км слаб. ливневой дождь н/о +19.2 +13.7 70 +22 +22 комфорт 1007.7 1004.8
14 19.06 ЮЗ 4 10 км дождь н/о +17.9 +14.7 82 +18 +18 по сезону 1007.9 1004.9
15 19.06 Ю 3 9000 м дождь н/о +17.3 +16.1 93 +17 +17 по сезону 1007.9 1004.9
16 19.06 ЮЗ 4 17 км слаб. ливневой дождь н/о +17.6 +16.0 90 +17 +17 по сезону 1007.8 1004.9
17 19.06 З 3 30 км в посл. час дождь н/о +18.5 +16.0 85 +19 +19 по сезону 1007.7 1004.7
18 19.06 З 4 40 км н/о +18.2 +15.1 82 +18 +18 по сезону 1007.9 1004.9 +19.5 7
19 19.06 З 3 40 км в посл. час дождь н/о +17.7 +14.7 83 +18 +18 тепло 1008.1 1005.1
20 19.06 З 4 35 км н/о +17.4 +14.5 83 +17 +17 тепло 1008.5 1005.5
21 19.06 З 3 29 км в посл. час дождь н/о +16.7 +14.2 85 +17 +17 тепло 1009.0 1006.0
22 19.06 З 4 29 км в посл. час дождь н/о +16.2 +13.7 85 +16 +16 тепло 1009.3 1006.3
23 19.06 З 3 16 км слаб. морось с дождем н/о +15.6 +14.1 91 +15 +15 тепло 1009.6 1006.6
00 20.06 ЮЗ 3 21 км в посл. час дождь н/о +15.2 +14.3 94 +15 +15 тепло 1009.8 1006.8 0.4
01 20.06 З 3 21 км н/о +14.9 +13.8 93 +14 +14 тепло 1009.8 1006.8
02 20.06 З 4 26 км н/о +14.4 +12.9 91 +13 +13 по сезону 1009.8 1006.9
03 20.06 З 4 30 км н/о +14.0 +11.7 86 +13 +13 по сезону 1010.0 1007.0
04 20.06 З 4 30 км н/о +13.5 +11.4 87 +12 +12 по сезону 1010.5 1007.5
05 20.06 З 4 40 км н/о +12.4 +10.0 85 +11 +11 по сезону 1010.9 1007.9
06 20.06 З 5 35 км н/о +13.3 +10.2 81 +11 +11 по сезону 1011.3 1008.3 +12.3 0.4
07 20.06 З 6 35 км н/о +14.3 +10.8 79 +12 +12 прохладно 1011.8 1008.8
08 20.06 З 5 40 км н/о +15.9 +11.5 75 +15 +15 по сезону 1012.0 1009.0
09 20.06 З 6 50 км н/о +16.8 +10.1 65 +16 +16 по сезону 1012.2 1009.2
10 20.06 З 6 55 км н/о +18.8 +10.6 59 +19 +19 по сезону 1012.3 1009.3
11 20.06 З 7 60 км н/о +19.3 +10.1 55 +20 +20 по сезону 1012.8 1009.8
12 20.06 З 7 60 км н/о +18.6 +8.4 51 +18 +18 по сезону 1012.9 1009.9
13 20.06 З 7 65 км н/о +18.0 +8.3 53 +17 +17 прохладно 1013.3 1010.3
14 20.06 З 4 >70 км н/о +19.3 +8.4 49 +20 +20 по сезону 1013.4 1010.5
15 20.06 З 5 >70 км н/о +18.7 +8.1 50 +19 +19 по сезону 1013.4 1010.4
16 20.06 З 7 >70 км н/о +20.4 +8.7 47 +21 +21 комфорт 1013.3 1010.4
17 20.06 ЮЗ 7 >70 км н/о +18.2 +8.6 53 +18 +18 по сезону 1013.6 1010.7
18 20.06 ЮЗ 6 >70 км н/о +16.9 +8.5 58 +16 +16 прохладно 1014.0 1011.1 +20.5
19 20.06 З 7 50 км н/о +16.4 +9.6 64 +15 +15 по сезону 1014.5 1011.5
20 20.06 ЮЗ 5 >70 км в посл. час дождь н/о +15.7 +9.2 65 +15 +15 по сезону 1014.8 1011.8
21 20.06 ЮЗ 5 70 км н/о +15.3 +9.5 68 +14 +14 по сезону 1015.3 1012.3
22 20.06 З 5 >70 км н/о +14.7 +9.7 72 +13 +13 тепло 1015.7 1012.7
23 20.06 З 5 65 км н/о +14.0 +9.8 76 +12 +12 по сезону 1016.2 1013.1
00 21.06 З 4 40 км н/о +12.3 +9.3 82 +10 +10 прохладно 1016.5 1013.5 0.0
01 21.06 З 4 55 км н/о +11.3 +8.3 82 +9 +9 по сезону 1016.8 1013.7
02 21.06 З 3 40 км н/о +10.7 +8.2 85 +9 +9 прохладно 1017.3 1014.2
03 21.06 ЮЗ 3 45 км н/о +10.0 +8.3 89 +8 +8 прохладно 1017.5 1014.4
04 21.06 З 2 45 км н/о +9.3 +8.1 92 +7 +7 прохладно 1017.8 1014.7
05 21.06 З 2 40 км н/о +10.1 +8.7 91 +9 +9 прохладно 1018.0 1015.0
06 21.06 З 3 45 км н/о +12.0 +9.5 85 +10 +10 прохладно 1018.4 1015.4 +8.8 0.0
07 21.06 З 4 40 км н/о +14.2 +10.0 76 +13 +13 по сезону 1018.8 1015.8
08 21.06 З 6 40 км н/о +14.9 +9.1 68 +13 +13 прохладно 1019.2 1016.2
09 21.06 З 4 45 км н/о +16.9 +9.8 63 +16 +16 по сезону 1019.4 1016.4
10 21.06 З 5 50 км н/о +18.6 +8.0 50 +19 +19 по сезону 1019.5 1016.5
11 21.06 З 4 50 км н/о +19.0 +9.3 53 +20 +20 по сезону 1019.6 1016.6
12 21.06 З 4 60 км н/о +18.9 +7.3 47 +19 +19 по сезону 1019.7 1016.7
13 21.06 З 4 55 км н/о +20.6 +7.5 43 +22 +22 комфорт 1019.7 1016.8
14 21.06 З 4 65 км н/о +20.8 +6.0 38 +22 +22 комфорт 1019.7 1016.8
15 21.06 З 4 60 км н/о +21.7 +7.1 39 +23 +23 комфорт 1019.8 1016.8
16 21.06 З 3 50 км н/о +20.2 +6.0 40 +21 +21 комфорт 1020.0 1017.0
17 21.06 З 3 45 км н/о +20.3 +6.5 41 +22 +22 комфорт 1020.2 1017.2
18 21.06 СЗ 2 27 км н/о +20.6 +6.5 40 +22 +22 комфорт 1020.3 1017.3 +22.4
19 21.06 СЗ 2 35 км н/о +19.4 +6.7 44 +21 +21 комфорт 1020.6 1017.6
20 21.06 З 4 40 км н/о +18.3 +9.9 58 +19 +19 тепло 1021.1 1018.1
21 21.06 З 3 40 км н/о +17.2 +10.5 65 +17 +17 по сезону 1021.3 1018.3
22 21.06 ЮЗ 3 50 км н/о +16.1 +10.0 67 +16 +16 тепло 1021.6 1018.5
23 21.06 ЮЗ 3 40 км н/о +14.6 +9.9 73 +14 +14 тепло 1021.7 1018.7
00 22.06 Ю 2 40 км н/о +13.5 +10.1 80 +13 +13 по сезону 1021.9 1018.8
01 22.06 ЮЗ 2 35 км н/о +12.4 +9.9 85 +12 +12 по сезону 1021.7 1018.7
02 22.06 ЮЗ 2 35 км в посл. час туман н/о +11.5 +9.6 88 +11 +11 по сезону 1021.6 1018.6
03 22.06 З 1 35 км н/о +10.9 +9.3 90 +10 +10 прохладно 1021.6 1018.6
04 22.06 Ю 2 35 км н/о +10.4 +8.9 90 +9 +9 по сезону 1021.8 1018.7
05 22.06 ЮВ 2 35 км н/о +11.1 +10.1 94 +10 +10 по сезону 1021.9 1018.8
06 22.06 ЮВ 2 35 км н/о +13.3 +10.2 81 +13 +13 по сезону 1021.8 1018.7 +9.7
07 22.06 ЮВ 3 50 км н/о +15.5 +10.0 70 +15 +15 по сезону 1021.8 1018.8
08 22.06 Ю 3 55 км дым н/о +17.6 +10.2 62 +18 +18 тепло 1022.2 1019.2
09 22.06 Ю 4 65 км н/о +18.7 +10.2 58 +19 +19 тепло 1022.1 1019.1
10 22.06 ЮВ 4 >70 км н/о +20.2 +9.9 52 +22 +22 комфорт 1021.7 1018.8
11 22.06 ЮВ 5 70 км н/о +21.5 +8.3 43 +23 +23 комфорт 1021.5 1018.6
12 22.06 Ю 4 65 км н/о +21.7 +9.0 44 +23 +23 комфорт 1021.2 1018.3
13 22.06 Ю 5 65 км н/о +23.0 +9.1 41 +24 +24 комфорт 1020.7 1017.7
14 22.06 Ю 5 50 км н/о +23.6 +9.7 41 +25 +25 комфорт 1020.2 1017.3
15 22.06 ЮВ 4 60 км н/о +21.3 +9.3 46 +23 +23 комфорт 1020.0 1017.1
16 22.06 В 5 60 км н/о +21.2 +8.6 44 +22 +22 комфорт 1019.8 1016.8
17 22.06 В 6 60 км н/о +21.5 +9.2 45 +23 +23 комфорт 1019.3 1016.4
18 22.06 В 6 60 км н/о +20.8 +6.4 39 +22 +22 комфорт 1019.3 1016.3 +23.8
19 22.06 В 6 60 км н/о +19.0 +5.4 41 +19 +19 тепло 1019.4 1016.5
20 22.06 В 6 60 км н/о +17.0 +4.8 44 +16 +16 по сезону 1020.1 1017.1
21 22.06 В 5 65 км н/о +15.6 +5.0 49 +15 +15 по сезону 1020.4 1017.4
22 22.06 В 4 55 км н/о +14.7 +6.2 57 +14 +14 тепло 1020.4 1017.4
23 22.06 В 3 45 км н/о +14.6 +8.9 69 +14 +14 тепло 1020.0 1017.0
00 23.06 СВ 2 40 км н/о +13.7 +9.2 74 +14 +14 по сезону 1019.9 1016.9
01 23.06 СВ 2 35 км н/о +13.6 +9.4 76 +13 +13 тепло 1019.5 1016.5
02 23.06 СВ 2 30 км н/о +13.3 +10.0 80 +13 +13 по сезону 1019.1 1016.1
03 23.06 СВ 2 23 км н/о +12.9 +10.6 86 +12 +12 по сезону 1019.0 1016.0
04 23.06 СВ 2 17 км н/о +12.8 +11.0 89 +12 +12 по сезону 1018.6 1015.6
05 23.06 СВ 3 15 км н/о +13.3 +11.5 89 +12 +12 по сезону 1018.2 1015.2
06 23.06 СВ 2 17 км н/о +15.1 +12.9 87 +15 +15 тепло 1018.2 1015.2 +12.5
07 23.06 В 2 17 км н/о +16.7 +13.4 81 +17 +17 тепло 1018.2 1015.2
08 23.06 В 3 17 км н/о +18.7 +14.2 75 +20 +20 тепло 1018.2 1015.2
09 23.06 В 3 20 км н/о +20.9 +14.5 67 +24 +24 комфорт 1018.0 1015.0
10 23.06 В 4 21 км н/о +22.0 +14.0 60 +25 +25 комфорт 1017.5 1014.6
11 23.06 СВ 4 23 км н/о +22.1 +14.5 62 +25 +25 комфорт 1017.2 1014.3
12 23.06 СВ 5 28 км н/о +23.2 +14.3 57 +27 +27 душно 1016.6 1013.7
13 23.06 В 6 30 км н/о +23.9 +13.5 52 +26 +26 жарко 1015.8 1012.8
14 23.06 В 7 35 км н/о +24.5 +14.3 53 +27 +27 жарко 1015.4 1012.5
15 23.06 В 5 30 км н/о +23.2 +14.1 57 +27 +27 душно 1015.6 1012.7
16 23.06 В 7 30 км н/о +21.9 +13.3 58 +25 +25 комфорт 1015.0 1012.1
17 23.06 В 6 30 км н/о +21.3 +13.7 62 +24 +24 комфорт 1015.0 1012.0
18 23.06 В 5 28 км н/о +21.0 +13.9 64 +24 +24 комфорт 1014.8 1011.9 +24.9
19 23.06 СВ 3 27 км н/о +20.8 +14.1 65 +24 +24 комфорт 1014.7 1011.8
20 23.06 В 4 20 км н/о +20.6 +14.1 66 +23 +23 комфорт 1014.5 1011.6
21 23.06 В 4 18 км н/о +20.1 +14.3 69 +22 +22 комфорт 1014.6 1011.7
22 23.06 В 2 17 км н/о +19.6 +14.3 71 +22 +22 комфорт 1014.6 1011.7
23 23.06 СВ 2 14 км н/о +19.0 +14.6 76 +21 +21 комфорт 1014.6 1011.7
00 24.06 В 2 12 км н/о +18.8 +15.0 79 +21 +21 комфорт 1014.3 1011.4
01 24.06 В 2 10 км дым н/о +17.9 +14.8 82 +19 +19 тепло 1014.1 1011.1
02 24.06 С 1 8000 м дым н/о +17.9 +15.1 84 +20 +20 тепло 1013.9 1010.9
03 24.06 СВ 1 7000 м дым н/о +17.5 +15.2 86 +19 +19 тепло 1013.6 1010.6
04 24.06 СВ 2 5000 м дым н/о +17.5 +15.5 88 +18 +18 тепло 1013.2 1010.2
05 24.06 СВ 2 5000 м дым н/о +17.8 +15.8 88 +19 +19 тепло 1013.3 1010.3
06 24.06 СВ 2 7000 м дым н/о +20.6 +17.1 80 +25 +25 комфорт 1013.1 1010.2 +17.2
07 24.06 В 1 11 км н/о +22.0 +17.0 73 +26 +26 душно 1013.9 1011.0
08 24.06 Ю 3 16 км н/о +22.7 +17.3 72 +28 +28 душно 1014.4 1011.4
09 24.06 Ю 3 25 км н/о +22.6 +17.4 72 +27 +27 душно 1014.8 1011.9
10 24.06 З 3 27 км в посл. час дождь н/о +23.3 +18.0 72 +29 +29 душно 1014.5 1011.6
11 24.06 ЮЗ 3 17 км н/о +22.8 +17.6 72 +28 +28 душно 1015.7 1012.8
12 24.06 ЮЗ 3 24 км н/о +23.1 +17.7 72 +29 +29 очень
душно
1016.4 1013.5 0.0
13 24.06 Ю 4 15 км в посл. час дождь н/о +23.7 +17.8 70 +28 +28 душно 1016.6 1013.7
14 24.06 Ю 5 10 км в посл. час дождь н/о +23.0 +17.2 70 +28 +28 душно 1016.7 1013.8
15 24.06 ЮЗ 3 20 км н/о +23.8 +17.3 67 +28 +28 душно 1016.1 1013.2
16 24.06 ЮЗ 3 22 км н/о +24.0 +17.2 66 +28 +28 душно 1016.2 1013.3
17 24.06 Ю 3 25 км н/о +23.7 +16.6 64 +27 +27 жарко 1016.3 1013.4
18 24.06 ЮВ 3 30 км н/о +23.4 +14.5 57 +27 +27 душно 1016.6 1013.7 +24.5 0.0
19 24.06 Ю 4 19 км слаб. ливневой дождь н/о +22.8 +16.6 68 +27 +27 душно 1017.5 1014.6
20 24.06 Ю 4 30 км в посл. час дождь н/о +21.6 +15.8 70 +25 +25 комфорт 1017.8 1014.8
21 24.06 Ю 3 30 км слаб. морось с дождем н/о +20.7 +16.2 75 +24 +24 комфорт 1018.2 1015.3
22 24.06 Ю 2 27 км слаб. ливневой дождь н/о +19.9 +16.3 80 +23 +23 комфорт 1018.5 1015.5
23 24.06 Ю 1 23 км в посл. час дождь н/о +18.9 +16.3 85 +21 +21 комфорт 1018.1 1015.1
00 25.06 Ю 2 13 км слаб. ливневой дождь н/о +18.4 +16.4 88 +20 +20 тепло 1018.5 1015.5 0.0
01 25.06 С 1 12 км слаб. дождь н/о +18.5 +17.0 91 +20 +20 тепло 1017.1 1014.2
02 25.06 С 1 9000 м слаб. дождь н/о +18.4 +17.3 93 +21 +21 комфорт 1016.7 1013.8
03 25.06 ЮВ 3 6000 м в посл. час дождь н/о +18.1 +17.3 95 +19 +19 тепло 1016.8 1013.8
04 25.06 ЮВ 1 3900 м слаб. дождь н/о +18.0 +17.4 96 +19 +19 тепло 1017.0 1014.1
05 25.06 СВ 2 3500 м дождь н/о +18.1 +17.7 98 +19 +19 тепло 1016.0 1013.1
06 25.06 СВ 1 7000 м в посл. час дождь н/о +18.5 +17.9 96 +20 +20 тепло 1016.3 1013.3 +17.8 3
07 25.06 СВ 2 7000 м слаб. морось с дождем н/о +19.1 +18.0 93 +21 +21 комфорт 1016.9 1014.0
08 25.06 СВ 2 11 км в посл. час дождь н/о +19.4 +17.8 90 +22 +22 комфорт 1017.1 1014.1
09 25.06 СВ 2 13 км н/о +20.5 +18.2 87 +25 +25 комфорт 1017.2 1014.2
10 25.06 СВ 2 23 км н/о +21.3 +18.4 84 +26 +26 душно 1017.5 1014.6
11 25.06 СЗ 2 30 км н/о +22.5 +18.0 76 +28 +28 душно 1018.0 1015.1
12 25.06 С 2 35 км н/о +23.1 +17.6 71 +28 +28 душно 1018.2 1015.3 0.0
13 25.06 СВ 3 35 км н/о +23.3 +17.4 69 +29 +29 душно 1018.5 1015.6
14 25.06 С 2 27 км н/о +23.6 +18.0 71 +28 +28 душно 1018.8 1015.9
15 25.06 С 3 23 км н/о +22.2 +17.8 76 +27 +27 душно 1019.2 1016.3
16 25.06 С 4 29 км н/о +21.7 +17.1 75 +26 +26 душно 1019.4 1016.5
17 25.06 СВ 4 19 км н/о +20.7 +16.7 78 +24 +24 комфорт 1020.2 1017.3
18 25.06 СВ 3 17 км н/о +20.8 +16.6 77 +25 +25 комфорт 1020.8 1017.8 +23.9 0.0
19 25.06 СВ 3 14 км н/о +19.8 +16.3 80 +22 +22 комфорт 1021.6 1018.6
20 25.06 С 2 11 км н/о +19.3 +16.4 83 +22 +22 комфорт 1022.1 1019.1
21 25.06 СВ 3 11 км н/о +18.6 +16.3 86 +20 +20 тепло 1022.6 1019.6
22 25.06 С 3 10 км н/о +17.8 +15.7 88 +18 +18 тепло 1023.3 1020.3
23 25.06 С 3 10 км н/о +17.4 +15.6 89 +18 +18 тепло 1023.7 1020.7
00 26.06 СВ 4 12 км н/о +16.9 +15.3 90 +16 +16 тепло 1024.0 1021.0
01 26.06 СВ 3 8000 м дым н/о +16.2 +15.2 94 +16 +16 тепло 1024.5 1021.5
02 26.06 СВ 4 12 км н/о +16.0 +14.6 91 +15 +15 тепло 1024.7 1021.7
03 26.06 СВ 4 21 км н/о +15.7 +14.3 91 +15 +15 тепло 1025.0 1021.9
04 26.06 СВ 4 20 км н/о +15.8 +14.3 91 +15 +15 тепло 1025.3 1022.3
05 26.06 СВ 5 13 км н/о +15.6 +14.1 91 +14 +14 тепло 1025.8 1022.8
06 26.06 СВ 4 10 км н/о +15.5 +14.1 91 +14 +14 по сезону 1026.6 1023.6 +15.5
07 26.06 СВ 4 20 км н/о +15.7 +14.1 90 +15 +15 тепло 1027.2 1024.2

 

Местоположение метеостанции Аэропорт Хитроу (Великобритания): широта 51.48 долгота -0.45 высота над уровнем моря 25 м.

В архиве по умолчанию представлена погода в Аэропорту Хитроу за последнюю неделю. Архивные данные за месяц целиком и за предыдущие месяцы, начиная с января 2011 года, Вы можете получить, выбрав интересующий диапазон дат из раскрывающегося списка и нажав кнопку "Ввод!".


*Определитесь, кто Вы:
робот инопланетянин человек

Внимание! Время в таблицах - всемирное. Для получения местного времени необходимо прибавить поправку, которая равна 0 ч.

Смотрите также архив погоды в соседних городах и на ближайших метеорологических станциях:

Погода в Норхолте (Великобритания) (8 км)
Погода в Лондоне (Великобритания) (23 км)
Погода в Чарлвуде (Великобритания) (28 км)
Погода в Фарнборо (Великобритания) (31 км)
Погода на Аэродроме Кенли (Великобритания) (33 км)
Погода в Хай-Уикоме (Великобритания) (33 км)
Погода в Одихеме (Великобритания) (44 км)
Погода в Бенсоне (Великобритания) (46 км)
Погода в Грейвзенде (Великобритания) (52 км)
Погода в Ротамстеде (Великобритания) (66 км)

Пояснения к столбцам:

Ветер - указаны скорость ветра в м/с - средняя за 10 мин, порывы в срок и между сроками (в фигурных скобках) и направление, откуда дует ветер: С - северный, СВ - северо-восточный, В - восточный, ЮВ - юго-восточный, Ю - южный, ЮЗ - юго-западный, З - западный, СЗ - северо-западный.
Видимость - горизонтальная дальность видимости в метрах или километрах. При видимости от 1 до 10 км при отсутствии осадков обычно наблюдается дымка, при ухудшении видимости до 1 км и менее - туман. В сухую погоду видимость может ухудшаться дымом, пылью или мглою.
Явления - указаны атмосферные явления, наблюдавшиеся в срок или в последний час перед сроком; фигурными скобками обозначены явления, наблюдавшиеся между сроками (за 1-3 часа до срока); квадратными скобками обозначены град или гололедные отложения с указанием их диаметра в мм.
Облачность - указаны через наклонную черту общая и нижняя облачность в баллах и высота нижней границы облаков в метрах; квадратными скобками обозначены формы облаков: Ci - перистые, Cs - перисто-слоистые, Cc - перисто-кучевые, Ac - высококучевые, As - высокослоистые, Sc - слоисто-кучевые, Ns - слоисто-дождевые, Cu - кучевые, Cb - кучево-дождевые. Подробнее классификацию облаков см. в Атласе облаков (PDF).
T - Температура воздуха - температура, измеренная на высоте 2 м над землей.
Td - Температура точки росы - температура, при понижении до которой содержащийся в воздухе водяной пар достигнет насыщения.
f - Относительная влажность воздуха - влажноcть воздуха, измеренная на высоте 2 м над землей.
Te - Эффективная температура - температура, которую ощущает одетый по сезону человек в тени. Характеристика душности погоды. При расчете учитывается влияние влажности воздуха и скорости ветра на теплоощущения человека.
Tes - Эффективная температура на солнце - температура, которую ощущает человек, с поправкой на солнечный нагрев. Характеристика знойности погоды. Зависит от высоты солнца над горизонтом, облачности и скорости ветра. Ночью, в пасмурную погоду, а также при ветре 12 м/с и более поправка равна нулю.
P - Атмосферное давление - приведенное к уровню моря атмосферное давление.
Po - Атмосферное давление - измеренное на уровне метеостанции атмосферное давление.
Tmin - Минимальная температура - минимум температуры воздуха на высоте 2 м над землей.
Tmax - Максимальная температура - максимум температуры воздуха на высоте 2 м над землей.
R - Количество осадков - Количество выпавших осадков за период времени, мм. При наведении курсора мыши на число - период времени, за который выпало указанное количество осадков.
R24 - Количество осадков - Количество выпавших осадков за 24 часа, мм.
S - Снежный покров - Высота снежного покрова, см. При наведении курсора мыши на число - состояние снежного покрова и степень покрытия местности в баллах.